Weather History for Montreal, QC

Change the Weather History Date:

Saturday, February 16, 2013

  Actual Average Record
Temperature  
Mean Temperature 16 °F -  
Max Temperature 21 °F 24 °F 39 °F (2002)
Min Temperature 12 °F 9 °F -14 °F (2003)
Degree Days  
Heating Degree Days 48    
Moisture  
Dew Point 7 °F    
Average Humidity 60    
Maximum Humidity 74    
Minimum Humidity 40    
Precipitation  
Precipitation 0.00 in - - ()
Sea Level Pressure  
Sea Level Pressure 30.03 in    
Wind  
Wind Speed 11 mph ()    
Max Wind Speed 17 mph    
Max Gust Speed 24 mph    
Visibility 15.0 miles    
Events Snow    
Averages and records for this station are not official NWS values.
T = Trace of Precipitation, MM = Missing Value Source: Averaged Metar Reports

Daily Weather History Graph

Daily Weather History Graph

Search for Another Location

Airport:

Trip Planner

Search our weather history database for the weather conditions in past years. The results will help you decide how hot, cold, wet, or windy it might be!

Date:

Astronomy

Feb. 16, 2013 Rise Set
Actual Time 6:54 AM EST 5:23 PM EST
Civil Twilight 6:24 AM EST 5:54 PM EST
Nautical Twilight 5:49 AM EST 6:28 PM EST
Astronomical Twilight 5:15 AM EST 7:03 PM EST
Moon 9:44 AM EST (2/16) No Moon Set
Length of Visible Light 11h 29m
Length of Day
10h 29m
Waxing Crescent, 39% of the Moon is Illuminated
Feb 16
Waxing Crescent
Feb 17
First Quarter
Feb 25
Full
Mar 4
Last Quarter
Mar 11
New

Hourly Weather History & Observations

Time (EST) Temp. Windchill Dew Point Humidity Pressure Visibility Wind Dir Wind Speed Gust Speed Precip Events Conditions
12:00 AM 28.4 °F 17.0 °F 19.4 °F 69% 29.95 in 15.0 mi West 15.0 mph 24.2 mph N/A Snow Light Snow Showers
1:00 AM 26 °F - 18 °F 61% 29.99 in 15 mi West 16.1 mph - - Snow Light Snow
1:00 AM 24.8 °F 11.5 °F 17.6 °F 74% 29.99 in 15.0 mi West 17.3 mph - N/A Snow Light Snow
1:44 AM 23.0 °F 10.6 °F 12.2 °F 63% 30.00 in 15.0 mi West 13.8 mph 20.7 mph N/A   Overcast
2:00 AM 23.0 °F 11.7 °F 12.2 °F 63% 30.00 in 15.0 mi West 11.5 mph - N/A   Overcast
3:00 AM 19.4 °F 5.5 °F 10.4 °F 68% 30.00 in 15.0 mi WSW 15.0 mph - N/A   Mostly Cloudy
4:00 AM 17.6 °F 5.0 °F 8.6 °F 68% 30.01 in 15.0 mi West 11.5 mph - N/A   Scattered Clouds
5:00 AM 15.8 °F 2.1 °F 6.8 °F 68% 30.02 in 15.0 mi WSW 12.7 mph - N/A   Partly Cloudy
6:00 AM 14.0 °F 2.0 °F 6.8 °F 73% 30.03 in 15.0 mi WSW 9.2 mph - N/A   Partly Cloudy
7:00 AM 14.0 °F 1.2 °F 5.0 °F 67% 30.05 in 15.0 mi West 10.4 mph - N/A   Partly Cloudy
8:00 AM 12.2 °F -1.8 °F 5.0 °F 73% 30.06 in 15.0 mi West 11.5 mph - N/A   Partly Cloudy
9:00 AM 14.0 °F 2.9 °F 5.0 °F 67% 30.08 in 30.0 mi WSW 8.1 mph - N/A   Partly Cloudy
10:00 AM 14.0 °F 2.0 °F 3.2 °F 62% 30.07 in 30.0 mi West 9.2 mph - N/A   Scattered Clouds
11:00 AM 15.8 °F 2.1 °F 3.2 °F 58% 30.07 in 30.0 mi West 12.7 mph - N/A   Mostly Cloudy
12:00 PM 17.6 °F 7.3 °F 5.0 °F 58% 30.06 in 30.0 mi WSW 8.1 mph - N/A   Partly Cloudy
1:00 PM 20 °F - 6 °F 40% 30.05 in 28 mi West 11.5 mph - -   Clear
1:00 PM 19.4 °F 7.2 °F 5.0 °F 54% 30.04 in 30.0 mi West 11.5 mph - N/A   Partly Cloudy
2:00 PM 19.4 °F 6.6 °F 3.2 °F 49% 30.03 in 30.0 mi West 12.7 mph - N/A   Mostly Cloudy
3:00 PM 21.2 °F 11.7 °F 5.0 °F 50% 30.02 in 30.0 mi SW 8.1 mph - N/A   Mostly Cloudy
4:00 PM 21.2 °F 10.1 °F 5.0 °F 50% 30.02 in 30.0 mi West 10.4 mph - N/A   Partly Cloudy
5:00 PM 19.4 °F 7.2 °F 5.0 °F 54% 30.02 in 30.0 mi WSW 11.5 mph - N/A   Partly Cloudy
6:00 PM 17.6 °F 5.7 °F 5.0 °F 58% 30.03 in 30.0 mi WSW 10.4 mph - N/A   Partly Cloudy
7:00 PM 17 °F - 4 °F 43% 30.04 in 28 mi West 9.2 mph - -   Clear
7:00 PM 17.6 °F 6.4 °F 5.0 °F 58% 30.04 in 30.0 mi West 9.2 mph - N/A   Partly Cloudy
8:00 PM 15.8 °F 3.4 °F 3.2 °F 58% 30.04 in 15.0 mi West 10.4 mph - N/A   Scattered Clouds
9:00 PM 15.8 °F 7.2 °F 3.2 °F 58% 30.03 in 15.0 mi West 5.8 mph - N/A   Scattered Clouds
10:00 PM 14.0 °F 5.1 °F 3.2 °F 62% 30.02 in 15.0 mi WNW 5.8 mph - N/A   Scattered Clouds
11:00 PM 14.0 °F 3.9 °F 3.2 °F 62% 30.00 in 15.0 mi WNW 6.9 mph - N/A   Mostly Cloudy